20060717,000021,864000,32.466800,-121.439576,26.9,16.604,32.976,42.196,2198.76,0.0,21.260,16.388, NaN, NaN,24.054,   NaN,16.65,1013.96,93.13,16.65,82.2,84.6,3.9,6.1,18.4,2.7,6.0,7.7,NaN, NaN,20.0,234.9,235.8,1153094421,1153094420,2,9.9,000021,000020,234.9,32.466853,-121.439440,10.03,NaN,NaN,16.608, NaN,NaN,NaN, NaN, NaN
20060717,000051,864031,32.465933,-121.440901,26.6,16.596,32.982,42.195,1993.57,0.0,21.260,16.393, NaN, NaN,24.060,   NaN,16.68,1014.04,93.16,16.68,74.3,84.9,3.2,6.3,22.7,1.9,5.3,7.8,NaN, NaN,19.0,234.4,230.8,1153094451,1153094450,2,10.1,000051,000050,234.4,32.465996,-121.440763,10.29,NaN,NaN,16.600, NaN,NaN,NaN, NaN, NaN
20060717,000121,864061,32.465066,-121.442220,26.7,16.589,32.983,42.190,2140.45,0.0,21.298,16.387, NaN, NaN,24.063,   NaN,16.67,1014.04,93.19,16.69,63.9,85.5,3.7,6.5,17.7,1.1,5.2,8.0,NaN, NaN,19.0,234.7,229.7,1153094481,1153094480,2,10.1,000081,000080,234.7,32.465133,-121.442093,10.19,NaN,NaN,16.593, NaN,NaN,NaN, NaN, NaN
20060717,000151,864090,32.464225,-121.443563,26.9,16.581,32.983,42.181,2113.35,0.0,21.316,16.383, NaN, NaN,24.064,   NaN,16.66,1013.92,93.14,16.66,58.2,84.5,3.6,6.6,24.1,359.9,5.3,8.0,NaN, NaN,20.0,235.7,246.8,1153094511,1153094510,2,10.2,000111,000110,235.7,32.464281,-121.443426,10.35,NaN,NaN,16.585, NaN,NaN,NaN, NaN, NaN
20060717,000221,864120,32.463386,-121.444863,26.6,16.569,32.988,42.176,2386.31,0.0,21.354,16.384, NaN, NaN,24.071,   NaN,16.63,1014.00,93.15,16.62,73.9,84.2,3.2,6.4,31.7,0.8,5.7,7.8,NaN, NaN,19.0,235.2,237.3,1153094541,1153094540,2,9.8,000141,000140,235.2,32.463443,-121.444718,9.97,NaN,NaN,16.573, NaN,NaN,NaN, NaN, NaN
20060717,000251,864150,32.462530,-121.446158,26.4,16.573,32.984,42.175,2474.26,0.0,21.354,16.384, NaN, NaN,24.066,   NaN,16.61,1014.07,93.17,16.62,79.2,84.2,3.0,6.1,29.5,1.7,5.5,7.6,NaN, NaN,19.0,233.4,228.9,1153094571,1153094570,2,9.9,000171,000170,233.4,32.462590,-121.446016,10.18,NaN,NaN,16.577, NaN,NaN,NaN, NaN, NaN
20060717,000321,864180,32.461641,-121.447453,27.1,16.572,32.984,42.174,2431.27,0.0,21.316,16.376, NaN, NaN,24.067,   NaN,16.62,1014.00,93.12,16.62,76.8,84.9,3.2,6.3,22.4,1.0,5.4,7.8,NaN, NaN,19.0,234.1,219.3,1153094601,1153094600,2,10.1,000201,000200,234.9,32.461708,-121.447306,10.15,NaN,NaN,16.576, NaN,NaN,NaN, NaN, NaN
20060717,000351,864211,32.460791,-121.448783,26.6,16.572,32.983,42.173,2382.10,0.0,21.316,16.366, NaN, NaN,24.066,   NaN,16.65,1013.86,93.17,16.65,90.6,86.2,3.2,6.3,25.4,2.2,6.0,7.9,NaN, NaN,18.0,233.9,229.6,1153094631,1153094630,2,10.0,000231,000230,233.9,32.460865,-121.448651,10.17,NaN,NaN,16.576, NaN,NaN,NaN, NaN, NaN
20060717,000421,864241,32.459941,-121.450110,26.9,16.566,32.983,42.168,2421.25,0.0,21.316,16.359, NaN, NaN,24.068,   NaN,16.63,1013.87,93.13,16.63,91.0,85.2,3.1,5.9,32.0,3.7,5.6,7.6,NaN, NaN,19.0,234.0,233.9,1153094661,1153094660,2,10.1,000261,000260,234.0,32.460005,-121.449965,10.23,NaN,NaN,16.570, NaN,NaN,NaN, NaN, NaN
20060717,000451,864270,32.459068,-121.451420,26.3,16.559,32.981,42.159,2469.96,0.0,21.316,16.353, NaN, NaN,24.067,   NaN,16.62,1013.91,93.09,16.62,70.6,84.8,3.5,6.1,26.7,2.4,5.3,7.7,NaN, NaN,20.0,235.7,230.0,1153094691,1153094690,2,10.1,000291,000290,235.7,32.459115,-121.451275,10.19,NaN,NaN,16.563, NaN,NaN,NaN, NaN, NaN
20060717,000521,864300,32.458213,-121.452751,26.5,16.551,32.978,42.148,2471.40,0.0,21.335,16.348, NaN, NaN,24.068,   NaN,16.62,1013.99,93.12,16.62,70.4,85.2,4.1,6.3,21.0,1.8,5.8,7.9,NaN, NaN,21.0,234.9,224.7,1153094721,1153094720,2,10.3,000321,000320,234.9,32.458263,-121.452610,10.34,NaN,NaN,16.555, NaN,NaN,NaN, NaN, NaN
20060717,000551,864330,32.457358,-121.454083,26.4,16.542,32.979,42.140,2398.91,0.0,21.316,16.347, NaN, NaN,24.070,   NaN,16.62,1013.86,93.15,16.61,66.6,85.3,3.8,6.2,24.5,2.5,5.7,7.8,NaN, NaN,21.0,235.4,229.8,1153094751,1153094750,2,10.5,000351,000350,235.4,32.457405,-121.453940,10.13,NaN,NaN,16.546, NaN,NaN,NaN, NaN, NaN
20060717,000621,864360,32.456510,-121.455421,26.3,16.538,32.982,42.140,2230.63,0.0,21.316,16.347, NaN, NaN,24.073,   NaN,16.63,1013.84,93.15,16.63,65.8,85.5,3.1,6.1,28.3,3.1,5.1,7.7,NaN, NaN,20.0,234.5,234.2,1153094781,1153094780,2,10.6,000381,000380,234.5,32.456563,-121.455271,10.25,NaN,NaN,16.542, NaN,NaN,NaN, NaN, NaN
20060717,000651,864391,32.455651,-121.456750,26.5,16.540,32.977,42.137,2339.94,0.0,21.335,16.342, NaN, NaN,24.069,   NaN,16.62,1013.80,93.17,16.61,55.4,85.4,3.2,6.2,25.3,2.6,4.9,7.8,NaN, NaN,19.0,233.5,236.6,1153094811,1153094810,2,9.9,000411,000410,233.5,32.455706,-121.456606,10.34,NaN,NaN,16.544, NaN,NaN,NaN, NaN, NaN
20060717,000721,864420,32.454800,-121.458073,26.7,16.550,32.977,42.146,2367.96,0.0,21.316,16.336, NaN, NaN,24.067,   NaN,16.61,1013.75,93.14,16.61,61.5,85.5,3.5,6.5,20.7,1.1,5.3,8.1,NaN, NaN,19.0,235.5,235.1,1153094841,1153094840,2,10.5,000441,000440,235.5,32.454828,-121.457915,10.38,NaN,NaN,16.554, NaN,NaN,NaN, NaN, NaN
20060717,000751,864450,32.453951,-121.459370,26.8,16.554,32.983,42.157,2425.77,0.0,21.335,16.341, NaN, NaN,24.071,   NaN,16.60,1013.83,93.16,16.61,68.4,85.2,3.2,6.4,23.8,1.3,5.2,7.9,NaN, NaN,21.0,235.0,235.5,1153094871,1153094870,2,10.1,000471,000470,235.0,32.453986,-121.459223,10.22,NaN,NaN,16.558, NaN,NaN,NaN, NaN, NaN
20060717,000821,864480,32.453103,-121.460676,26.4,16.556,32.983,42.159,2416.48,0.0,21.354,16.341, NaN, NaN,24.070,   NaN,16.62,1013.86,93.17,16.62,60.3,84.8,3.0,6.4,32.2,1.1,5.1,7.8,NaN, NaN,21.0,234.7,241.2,1153094901,1153094900,2,9.9,000501,000500,234.7,32.453145,-121.460525,10.14,NaN,NaN,16.560, NaN,NaN,NaN, NaN, NaN
20060717,000851,864510,32.452251,-121.461976,26.5,16.556,32.980,42.156,2419.56,0.0,21.372,16.339, NaN, NaN,24.068,   NaN,16.60,1013.80,93.18,16.61,69.3,84.9,3.2,6.4,31.2,1.0,5.5,7.9,NaN, NaN,21.0,235.2,233.5,1153094931,1153094930,2,10.3,000531,000530,235.2,32.452275,-121.461831,10.17,NaN,NaN,16.560, NaN,NaN,NaN, NaN, NaN
20060717,000921,864541,32.451375,-121.463295,26.3,16.545,32.980,42.144,2410.25,0.0,21.354,16.332, NaN, NaN,24.070,   NaN,16.62,1013.74,93.19,16.63,84.0,84.3,3.2,6.2,28.5,2.2,5.8,7.7,NaN, NaN,21.0,233.5,234.3,1153094961,1153094960,2,10.4,000561,000560,233.5,32.451413,-121.463158,10.37,NaN,NaN,16.549, NaN,NaN,NaN, NaN, NaN
20060717,000951,864571,32.450503,-121.464595,26.4,16.532,32.981,42.133,2381.02,0.0,21.354,16.322, NaN, NaN,24.074,   NaN,16.64,1013.82,93.14,16.64,83.4,85.0,3.3,6.5,26.1,1.0,5.9,8.0,NaN, NaN,21.0,233.3,235.0,1153094991,1153094990,2,9.8,000591,000590,233.3,32.450540,-121.464448,10.27,NaN,NaN,16.536, NaN,NaN,NaN, NaN, NaN
20060717,001021,864600,32.449641,-121.465908,27.0,16.520,32.982,42.123,2369.53,0.0,21.372,16.316, NaN, NaN,24.078,   NaN,16.64,1013.82,93.14,16.65,73.4,86.2,3.0,6.9,33.0,359.7,5.4,8.3,NaN, NaN,21.0,235.2,236.8,1153095021,1153095020,2,9.7,000621,000620,235.2,32.449678,-121.465766,10.38,NaN,NaN,16.524, NaN,NaN,NaN, NaN, NaN
20060717,001051,864630,32.448763,-121.467211,26.6,16.516,32.977,42.113,2412.83,0.0,21.372,16.314, NaN, NaN,24.074,   NaN,16.64,1013.79,93.10,16.64,70.7,85.7,3.3,6.8,28.1,359.9,5.4,8.2,NaN, NaN,20.0,233.9,230.1,1153095051,1153095050,2,10.1,000651,000650,233.9,32.448795,-121.467068,10.66,NaN,NaN,16.520, NaN,NaN,NaN, NaN, NaN
20060717,001121,864660,32.447900,-121.468503,26.4,16.519,32.974,42.113,2397.68,0.0,21.354,16.309, NaN, NaN,24.071,   NaN,16.63,1013.84,93.10,16.64,85.0,85.7,4.2,6.9,15.5,359.4,6.4,8.3,NaN, NaN,20.0,234.3,228.4,1153095081,1153095080,2,10.5,000681,000680,234.3,32.447945,-121.468366,10.32,NaN,NaN,16.523, NaN,NaN,NaN, NaN, NaN
20060717,001151,864690,32.447041,-121.469796,26.2,16.514,32.973,42.107,2422.53,0.0,21.335,16.306, NaN, NaN,24.072,   NaN,16.66,1013.94,93.07,16.67,72.9,85.7,4.0,6.8,17.8,359.6,5.8,8.3,NaN, NaN,20.0,235.9,226.2,1153095111,1153095110,2,9.9,000711,000710,235.9,32.447076,-121.469648,10.05,NaN,NaN,16.518, NaN,NaN,NaN, NaN, NaN
20060717,001221,864721,32.446215,-121.471080,26.2,16.507,32.973,42.101,2319.05,0.0,21.316,16.305, NaN, NaN,24.073,   NaN,16.63,1013.96,93.16,16.63,70.6,84.5,3.3,6.1,24.2,2.1,5.1,7.6,NaN, NaN,22.0,235.5,229.0,1153095141,1153095140,2,9.9,000741,000740,235.5,32.446246,-121.470941,10.13,NaN,NaN,16.511, NaN,NaN,NaN, NaN, NaN
20060717,001251,864751,32.445343,-121.472383,26.7,16.501,32.971,42.092,2460.68,0.0,21.354,16.306, NaN, NaN,24.073,   NaN,16.64,1013.90,93.06,16.65,84.6,84.5,3.6,6.2,22.9,1.7,5.7,7.7,NaN, NaN,21.0,234.7,232.8,1153095171,1153095170,2,10.1,000771,000770,234.7,32.445408,-121.472253,10.27,NaN,NaN,16.505, NaN,NaN,NaN, NaN, NaN
20060717,001321,864780,32.444508,-121.473688,26.7,16.502,32.972,42.094,2380.13,0.0,21.354,16.308, NaN, NaN,24.074,   NaN,16.61,1013.93,93.04,16.62,80.1,85.6,4.1,6.8,17.7,359.9,6.1,8.2,NaN, NaN,21.0,234.7,234.5,1153095201,1153095200,2,10.2,000801,000800,234.7,32.444553,-121.473551,10.20,NaN,NaN,16.506, NaN,NaN,NaN, NaN, NaN
20060717,001351,864810,32.443660,-121.474993,26.4,16.505,32.963,42.087,2401.06,0.0,21.335,16.309, NaN, NaN,24.066,   NaN,16.65,1013.91,93.08,16.65,58.4,85.9,3.4,6.7,24.9,0.6,5.2,8.2,NaN, NaN,22.0,234.7,235.8,1153095231,1153095230,2,9.6,000831,000830,234.7,32.443705,-121.474858,10.09,NaN,NaN,16.509, NaN,NaN,NaN, NaN, NaN
20060717,001421,864840,32.442793,-121.476318,27.0,16.510,32.969,42.099,2394.88,0.0,21.316,16.314, NaN, NaN,24.069,   NaN,16.63,1013.84,93.03,16.63,57.5,86.0,2.9,6.5,30.8,1.5,5.0,8.0,NaN, NaN,23.0,235.2,231.0,1153095261,1153095260,2,10.3,000861,000860,235.4,32.442823,-121.476173,10.41,NaN,NaN,16.514, NaN,NaN,NaN, NaN, NaN
20060717,001451,864870,32.441913,-121.477620,26.3,16.515,32.969,42.104,2398.14,0.0,21.354,16.314, NaN, NaN,24.069,   NaN,16.65,1014.01,92.99,16.64,69.5,86.3,2.9,6.3,33.3,2.6,5.2,7.9,NaN, NaN,23.0,234.7,225.1,1153095291,1153095290,2,10.1,000891,000890,234.7,32.441946,-121.477478,10.48,NaN,NaN,16.519, NaN,NaN,NaN, NaN, NaN
20060717,001521,864901,32.441048,-121.478938,26.3,16.521,32.974,42.115,2312.35,0.0,21.316,16.314, NaN, NaN,24.071,   NaN,16.62,1014.01,92.95,16.62,72.3,86.2,3.0,6.7,31.9,0.7,5.4,8.3,NaN, NaN,23.0,235.9,228.5,1153095321,1153095320,2,10.4,000921,000920,235.9,32.441088,-121.478795,10.38,NaN,NaN,16.525, NaN,NaN,NaN, NaN, NaN
20060717,001551,864930,32.440173,-121.480226,26.3,16.524,32.977,42.121,2367.60,0.0,21.316,16.314, NaN, NaN,24.073,   NaN,16.67,1013.96,92.96,16.68,85.6,86.1,3.2,6.7,26.1,0.9,5.7,8.2,NaN, NaN,22.0,234.3,224.8,1153095351,1153095350,2,10.2,000951,000950,234.3,32.440226,-121.480091,10.40,NaN,NaN,16.528, NaN,NaN,NaN, NaN, NaN
20060717,001621,864960,32.439355,-121.481563,26.8,16.527,32.980,42.128,2380.08,0.0,21.316,16.314, NaN, NaN,24.074,   NaN,16.69,1013.90,92.96,16.69,81.2,86.0,3.2,6.3,23.0,2.0,5.4,7.9,NaN, NaN,23.0,234.8,241.9,1153095381,1153095380,2,10.1,000981,000980,234.8,32.439388,-121.481418,10.24,NaN,NaN,16.531, NaN,NaN,NaN, NaN, NaN
20060717,001651,864990,32.438475,-121.482851,26.6,16.521,32.986,42.129,2419.52,0.0,21.298,16.319, NaN, NaN,24.080,   NaN,16.66,1014.05,92.93,16.66,59.8,86.5,3.3,6.7,30.7,0.6,4.7,8.2,NaN, NaN,22.0,236.2,231.7,1153095411,1153095410,2,10.5,001011,001010,236.2,32.438506,-121.482713,10.32,NaN,NaN,16.525, NaN,NaN,NaN, NaN, NaN
20060717,001721,865020,32.437623,-121.484176,26.6,16.521,32.988,42.132,2245.95,0.0,21.316,16.320, NaN, NaN,24.082,   NaN,16.68,1013.94,92.91,16.71,66.3,87.1,3.7,6.7,29.3,0.9,5.3,8.3,NaN, NaN,21.0,235.2,227.1,1153095441,1153095440,2,10.3,001041,001040,235.2,32.437663,-121.484035,10.17,NaN,NaN,16.525, NaN,NaN,NaN, NaN, NaN
20060717,001751,865051,32.436738,-121.485503,26.8,16.526,32.989,42.137,2393.32,0.0,21.298,16.324, NaN, NaN,24.082,   NaN,16.71,1013.89,92.94,16.72,72.3,86.3,3.9,6.3,20.6,2.5,5.8,7.9,NaN, NaN,22.0,233.9,234.6,1153095471,1153095470,2,10.2,001071,001070,233.9,32.436780,-121.485361,10.36,NaN,NaN,16.530, NaN,NaN,NaN, NaN, NaN
20060717,001821,865081,32.435858,-121.486833,26.5,16.532,32.989,42.142,2264.35,0.0,21.316,16.328, NaN, NaN,24.080,   NaN,16.67,1014.06,92.85,16.68,55.9,84.7,3.5,6.0,19.0,3.5,5.1,7.6,NaN, NaN,22.0,234.6,241.1,1153095501,1153095500,2,10.1,001101,001100,234.6,32.435905,-121.486690,10.30,NaN,NaN,16.536, NaN,NaN,NaN, NaN, NaN
20060717,001851,865110,32.434983,-121.488158,26.4,16.534,32.990,42.145,2504.67,0.0,21.316,16.329, NaN, NaN,24.080,   NaN,16.69,1014.01,92.89,16.69,65.3,84.0,3.3,6.0,18.9,3.5,5.0,7.6,NaN, NaN,22.0,235.6,233.1,1153095531,1153095530,2,10.3,001131,001130,235.6,32.435030,-121.488020,10.35,NaN,NaN,16.538, NaN,NaN,NaN, NaN, NaN
20060717,001921,865140,32.434113,-121.489490,26.5,16.536,32.997,42.156,2461.55,0.0,21.335,16.331, NaN, NaN,24.085,   NaN,16.70,1013.95,92.86,16.71,69.5,85.1,3.6,6.3,20.0,2.2,5.3,7.9,NaN, NaN,22.0,236.0,230.9,1153095561,1153095560,2,10.3,001161,001160,236.0,32.434170,-121.489353,10.41,NaN,NaN,16.540, NaN,NaN,NaN, NaN, NaN
20060717,001951,865170,32.433231,-121.490781,26.5,16.536,32.994,42.152,2436.41,0.0,21.316,16.332, NaN, NaN,24.083,   NaN,16.73,1013.92,92.83,16.73,68.4,85.7,3.9,6.4,18.7,2.0,5.4,8.0,NaN, NaN,22.0,235.5,223.2,1153095591,1153095590,2,10.4,001191,001190,235.5,32.433276,-121.490646,10.15,NaN,NaN,16.540, NaN,NaN,NaN, NaN, NaN
20060717,002021,865200,32.432390,-121.492111,26.4,16.540,32.996,42.158,2233.23,0.0,21.335,16.335, NaN, NaN,24.084,   NaN,16.68,1014.08,92.82,16.67,86.0,85.8,3.0,6.2,28.1,2.7,5.7,7.8,NaN, NaN,23.0,233.5,226.0,1153095621,1153095620,2,9.9,001221,001220,233.5,32.432430,-121.491966,10.34,NaN,NaN,16.544, NaN,NaN,NaN, NaN, NaN
20060717,002051,865231,32.431503,-121.493406,26.6,16.542,32.998,42.162,2412.76,0.0,21.354,16.337, NaN, NaN,24.084,   NaN,16.68,1013.83,92.78,16.69,99.3,85.3,2.8,6.3,33.9,1.7,5.9,7.8,NaN, NaN,23.0,237.3,231.5,1153095651,1153095650,2,10.1,001251,001250,237.3,32.431543,-121.493256,10.16,NaN,NaN,16.546, NaN,NaN,NaN, NaN, NaN
20060717,002121,865260,32.430661,-121.494713,26.6,16.541,33.000,42.164,2115.51,0.0,21.354,16.340, NaN, NaN,24.086,   NaN,16.69,1013.93,92.81,16.70,100.3,83.8,3.5,6.3,32.5,1.1,6.3,7.7,NaN, NaN,24.0,233.9,229.6,1153095681,1153095680,2,10.4,001281,001280,233.9,32.430696,-121.494570,10.24,NaN,NaN,16.545, NaN,NaN,NaN, NaN, NaN
20060717,002151,865290,32.429798,-121.496020,26.4,16.544,33.001,42.167,2343.55,0.0,21.391,16.341, NaN, NaN,24.086,   NaN,16.71,1013.93,92.78,16.71,91.3,83.4,3.8,6.0,25.5,2.4,6.4,7.5,NaN, NaN,23.0,234.5,231.3,1153095711,1153095710,2,10.0,001311,001310,234.5,32.429843,-121.495876,10.29,NaN,NaN,16.548, NaN,NaN,NaN, NaN, NaN
20060717,002221,865320,32.428933,-121.497338,26.3,16.543,33.002,42.168,2434.63,0.0,21.410,16.338, NaN, NaN,24.087,   NaN,16.71,1013.96,92.85,16.71,77.4,83.8,3.7,6.0,21.1,2.7,5.8,7.5,NaN, NaN,22.0,236.0,228.0,1153095741,1153095740,2,10.4,001341,001340,236.0,32.428966,-121.497188,10.39,NaN,NaN,16.547, NaN,NaN,NaN, NaN, NaN
20060717,002251,865350,32.428071,-121.498640,26.3,16.545,33.004,42.172,2422.80,0.0,21.372,16.335, NaN, NaN,24.089,   NaN,16.69,1013.89,92.84,16.70,73.6,84.2,3.3,6.1,24.0,2.4,5.4,7.6,NaN, NaN,22.0,233.9,225.0,1153095771,1153095770,2,10.0,001371,001370,233.9,32.428111,-121.498498,10.35,NaN,NaN,16.549, NaN,NaN,NaN, NaN, NaN
20060717,002321,865381,32.427216,-121.499946,26.2,16.542,33.005,42.170,2250.34,0.0,21.410,16.335, NaN, NaN,24.090,   NaN,16.69,1013.99,92.78,16.69,85.7,83.7,3.5,6.4,22.2,0.5,5.9,7.8,NaN, NaN,22.0,235.2,227.3,1153095801,1153095800,2,10.1,001401,001400,235.2,32.427263,-121.499800,10.20,NaN,NaN,16.546, NaN,NaN,NaN, NaN, NaN
20060717,002351,865411,32.426373,-121.501283,26.9,16.542,33.009,42.174,2384.43,0.0,21.410,16.336, NaN, NaN,24.093,   NaN,16.68,1013.77,92.88,16.68,84.1,82.9,3.6,6.4,20.6,0.2,5.8,7.7,NaN, NaN,23.0,234.7,239.3,1153095831,1153095830,2,10.3,001431,001430,234.7,32.426403,-121.501135,10.21,NaN,NaN,16.546, NaN,NaN,NaN, NaN, NaN
20060717,002421,865440,32.425481,-121.502543,26.3,16.548,33.007,42.178,2389.19,0.0,21.391,16.344, NaN, NaN,24.090,   NaN,16.70,1013.83,92.88,16.69,72.6,83.3,3.2,6.0,21.3,1.8,5.2,7.4,NaN, NaN,23.0,234.9,228.4,1153095861,1153095860,2,10.3,001461,001460,234.9,32.425521,-121.502398,10.19,NaN,NaN,16.552, NaN,NaN,NaN, NaN, NaN
20060717,002451,865470,32.424611,-121.503865,26.7,16.554,33.007,42.183,2369.99,0.0,21.410,16.348, NaN, NaN,24.089,   NaN,16.70,1013.71,92.87,16.70,77.2,85.6,3.1,6.4,24.8,1.4,5.5,7.9,NaN, NaN,23.0,234.0,229.3,1153095891,1153095890,2,9.8,001491,001490,234.0,32.424650,-121.503705,10.41,NaN,NaN,16.558, NaN,NaN,NaN, NaN, NaN
20060717,002521,865500,32.423743,-121.505201,26.8,16.561,33.007,42.191,2299.07,0.0,21.391,16.348, NaN, NaN,24.088,   NaN,16.68,1013.87,92.83,16.67,77.2,85.3,2.7,6.3,34.6,2.1,5.6,7.9,NaN, NaN,23.0,234.9,242.9,1153095921,1153095920,2,10.5,001521,001520,235.1,32.423778,-121.505048,10.53,NaN,NaN,16.565, NaN,NaN,NaN, NaN, NaN
20060717,002551,865530,32.422890,-121.506516,27.0,16.565,33.008,42.195,2348.53,0.0,21.447,16.351, NaN, NaN,24.087,   NaN,16.68,1013.82,92.88,16.67,72.2,83.4,3.0,5.9,32.2,3.7,5.4,7.4,NaN, NaN,23.0,235.0,242.2,1153095951,1153095950,2,10.1,001551,001550,235.0,32.422920,-121.506370,10.14,NaN,NaN,16.569, NaN,NaN,NaN, NaN, NaN
20060717,002621,865561,32.422026,-121.507815,26.9,16.565,33.016,42.204,2358.55,0.0,21.447,16.366, NaN, NaN,24.093,   NaN,16.73,1013.87,92.92,16.73,81.5,83.2,3.3,5.9,26.5,3.5,5.4,7.4,NaN, NaN,22.0,234.5,235.8,1153095981,1153095980,2,9.8,001581,001580,234.5,32.422065,-121.507671,10.16,NaN,NaN,16.569, NaN,NaN,NaN, NaN, NaN
20060717,002651,865591,32.421165,-121.509146,26.9,16.564,33.017,42.205,2395.38,0.0,21.484,16.371, NaN, NaN,24.094,   NaN,16.73,1013.82,92.91,16.72,76.1,84.2,2.9,6.0,30.9,2.9,5.2,7.6,NaN, NaN,22.0,233.5,239.4,1153096011,1153096010,2,10.1,001611,001610,233.5,32.421200,-121.508995,10.30,NaN,NaN,16.568, NaN,NaN,NaN, NaN, NaN
20060717,002721,865620,32.420265,-121.510428,26.9,16.567,33.015,42.205,2238.44,0.0,21.466,16.370, NaN, NaN,24.092,   NaN,16.73,1013.88,92.97,16.73,70.9,84.3,3.7,6.1,28.1,2.0,5.6,7.6,NaN, NaN,22.0,232.7,223.0,1153096041,1153096040,2,10.2,001641,001640,232.7,32.420316,-121.510293,10.07,NaN,NaN,16.571, NaN,NaN,NaN, NaN, NaN
20060717,002751,865650,32.419410,-121.511766,26.6,16.566,33.020,42.209,2380.12,0.0,21.447,16.365, NaN, NaN,24.096,   NaN,16.69,1013.78,92.91,16.69,91.0,83.6,4.0,6.3,26.2,0.6,6.4,7.7,NaN, NaN,22.0,235.2,239.4,1153096071,1153096070,2,9.9,001671,001670,235.2,32.419456,-121.511630,10.18,NaN,NaN,16.570, NaN,NaN,NaN, NaN, NaN
20060717,002821,865680,32.418545,-121.513083,26.6,16.556,33.025,42.207,2353.42,0.0,21.484,16.365, NaN, NaN,24.102,   NaN,16.67,1013.97,92.90,16.68,80.7,84.1,3.4,6.5,27.6,360.0,6.1,7.9,NaN, NaN,23.0,235.5,233.8,1153096101,1153096100,2,10.4,001701,001700,235.5,32.418576,-121.512938,10.26,NaN,NaN,16.560, NaN,NaN,NaN, NaN, NaN
20060717,002851,865710,32.417651,-121.514415,26.5,16.546,33.030,42.202,2237.87,0.0,21.503,16.359, NaN, NaN,24.108,   NaN,16.73,1013.98,92.94,16.73,68.5,84.3,2.9,5.9,34.5,3.9,5.6,7.5,NaN, NaN,23.0,233.0,232.5,1153096131,1153096130,2,10.0,001731,001730,233.0,32.417683,-121.514260,10.35,NaN,NaN,16.550, NaN,NaN,NaN, NaN, NaN
20060717,002921,865741,32.416770,-121.515730,26.5,16.546,33.029,42.201,2078.12,0.0,21.503,16.357, NaN, NaN,24.107,   NaN,16.71,1013.96,92.98,16.71,97.7,82.3,2.8,5.3,36.9,6.6,6.0,7.0,NaN, NaN,22.0,236.3,235.7,1153096161,1153096160,2,10.5,001761,001760,236.3,32.416795,-121.515581,9.94,NaN,NaN,16.550, NaN,NaN,NaN, NaN, NaN
20060717,002951,865770,32.415908,-121.517051,26.4,16.551,33.029,42.206,1865.80,0.0,21.540,16.359, NaN, NaN,24.106,   NaN,16.71,1013.94,92.96,16.71,93.6,83.2,3.1,6.1,34.4,2.9,5.8,7.7,NaN, NaN,23.0,236.0,247.8,1153096191,1153096190,2,10.4,001791,001790,236.0,32.415927,-121.516895,10.19,NaN,NaN,16.555, NaN,NaN,NaN, NaN, NaN
20060717,003021,865800,32.415025,-121.518358,26.4,16.556,33.031,42.213,1102.05,0.0,21.559,16.363, NaN, NaN,24.107,   NaN,16.70,1013.89,92.95,16.70,70.8,84.7,3.2,6.4,28.5,1.5,5.5,7.9,NaN, NaN,23.0,235.4,226.1,1153096221,1153096220,2,10.3,001821,001820,235.4,32.415073,-121.518215,10.31,NaN,NaN,16.560, NaN,NaN,NaN, NaN, NaN
20060717,003051,865830,32.414150,-121.519690,26.2,16.556,33.037,42.220,872.54,0.0,21.671,16.364, NaN, NaN,24.111,   NaN,16.69,1013.97,92.95,16.70,81.7,85.2,3.2,6.1,26.3,3.4,5.8,7.7,NaN, NaN,23.0,233.1,236.9,1153096251,1153096250,2,9.6,001851,001850,233.1,32.414197,-121.519545,10.12,NaN,NaN,16.560, NaN,NaN,NaN, NaN, NaN
20060717,003121,865860,32.413257,-121.521033,26.8,16.559,33.038,42.225,862.35,0.0,21.578,16.358, NaN, NaN,24.112,   NaN,16.65,1013.85,93.05,16.65,73.1,85.9,2.5,6.1,40.3,3.5,5.7,7.8,NaN, NaN,22.0,234.7,235.0,1153096281,1153096280,2,10.1,001881,001880,234.7,32.413300,-121.520883,10.30,NaN,NaN,16.563, NaN,NaN,NaN, NaN, NaN
20060717,003151,865891,32.412413,-121.522410,26.8,16.557,33.039,42.224,950.94,0.0,21.746,16.349, NaN, NaN,24.113,   NaN,16.66,1013.86,93.12,16.68,40.8,84.5,3.5,6.0,34.3,4.6,5.7,7.6,NaN, NaN,22.0,244.2,240.8,1153096311,1153096310,2,10.3,001911,001910,244.2,32.412438,-121.522251,10.22,NaN,NaN,16.561, NaN,NaN,NaN, NaN, NaN
20060717,003221,865921,32.411753,-121.523875,27.0,16.551,33.043,42.222,833.27,0.0,21.839,16.344, NaN, NaN,24.117,   NaN,16.60,1013.80,93.11,16.61,64.3,82.6,4.2,6.2,26.4,7.1,6.1,7.6,NaN, NaN,23.0,244.2,249.6,1153096341,1153096340,2,10.3,001941,001940,244.2,32.411773,-121.523723,9.94,NaN,NaN,16.555, NaN,NaN,NaN, NaN, NaN
20060717,003251,865950,32.411050,-121.525303,27.0,16.552,33.042,42.222,808.24,0.0,21.802,16.341, NaN, NaN,24.116,   NaN,16.57,1013.78,93.22,16.57,76.4,79.5,3.9,6.3,30.4,7.5,6.2,7.4,NaN, NaN,23.0,242.7,245.2,1153096371,1153096370,2,10.0,001971,001970,242.7,32.411062,-121.525145,9.92,NaN,NaN,16.556, NaN,NaN,NaN, NaN, NaN
20060717,003321,865980,32.410335,-121.526740,26.5,16.561,33.046,42.235,821.85,0.0,21.821,16.341, NaN, NaN,24.117,   NaN,16.56,1013.85,93.27,16.57,72.7,78.7,4.5,6.3,17.6,5.7,5.9,7.3,NaN, NaN,23.0,243.2,243.2,1153096401,1153096400,2,10.0,002001,002000,243.2,32.410355,-121.526586,10.32,NaN,NaN,16.565, NaN,NaN,NaN, NaN, NaN
20060717,003351,866010,32.409592,-121.528185,26.8,16.563,33.050,42.242,983.47,0.0,21.783,16.337, NaN, NaN,24.120,   NaN,16.57,1013.80,93.32,16.57,69.2,79.7,4.1,6.2,26.5,7.0,5.7,7.4,NaN, NaN,22.0,242.8,228.5,1153096431,1153096430,2,11.0,002031,002030,242.8,32.409622,-121.528040,10.18,NaN,NaN,16.567, NaN,NaN,NaN, NaN, NaN
20060717,003421,866040,32.408920,-121.529638,26.6,16.559,33.052,42.239,849.16,0.0,21.802,16.335, NaN, NaN,24.122,   NaN,16.52,1013.76,93.33,16.53,73.9,80.6,3.9,6.1,30.4,8.7,5.8,7.4,NaN, NaN,22.0,244.4,240.7,1153096461,1153096460,2,10.2,002061,002060,244.4,32.408940,-121.529485,9.92,NaN,NaN,16.563, NaN,NaN,NaN, NaN, NaN
20060717,003451,866071,32.408165,-121.531058,26.2,16.555,33.056,42.241,783.72,0.0,21.802,16.333, NaN, NaN,24.126,   NaN,16.52,1013.85,93.40,16.52,66.3,81.6,4.2,6.4,20.9,7.4,5.7,7.6,NaN, NaN,22.0,242.6,227.5,1153096491,1153096490,2,10.7,002091,002090,242.9,32.408200,-121.530911,10.29,NaN,NaN,16.559, NaN,NaN,NaN, NaN, NaN
20060717,003521,866101,32.407395,-121.532418,26.4,16.556,33.055,42.241,768.52,0.0,21.746,16.332, NaN, NaN,24.125,   NaN,16.52,1013.86,93.43,16.52,65.7,82.7,4.4,6.7,16.3,3.4,5.8,7.9,NaN, NaN,22.0,232.6,233.8,1153096521,1153096520,2,10.3,002121,002120,232.4,32.407438,-121.532278,9.84,NaN,NaN,16.560, NaN,NaN,NaN, NaN, NaN
20060717,003551,866130,32.406470,-121.533738,26.8,16.561,33.055,42.246,762.98,0.0,21.821,16.325, NaN, NaN,24.124,   NaN,16.53,1013.79,93.55,16.53,75.8,85.0,3.5,6.4,26.1,1.5,6.0,7.9,NaN, NaN,22.0,235.4,235.7,1153096551,1153096550,2,10.6,002151,002150,235.5,32.406517,-121.533593,10.32,NaN,NaN,16.565, NaN,NaN,NaN, NaN, NaN
20060717,003621,866160,32.405548,-121.535055,26.5,16.554,33.056,42.240,749.90,0.0,21.895,16.321, NaN, NaN,24.126,   NaN,16.53,1013.82,93.57,16.53,69.7,86.0,2.9,6.2,29.8,2.4,5.4,7.9,NaN, NaN,21.0,234.4,223.4,1153096581,1153096580,2,10.7,002181,002180,234.4,32.405608,-121.534918,10.05,NaN,NaN,16.558, NaN,NaN,NaN, NaN, NaN
20060717,003651,866190,32.404648,-121.536386,26.3,16.554,33.061,42.246,737.13,0.0,21.858,16.322, NaN, NaN,24.130,   NaN,16.52,1013.79,93.61,16.52,67.7,84.8,3.6,6.4,18.7,1.6,5.2,8.0,NaN, NaN,21.0,234.6,226.1,1153096611,1153096610,2,10.4,002211,002210,234.6,32.404715,-121.536253,10.37,NaN,NaN,16.558, NaN,NaN,NaN, NaN, NaN